0 HST 1 20580U 90037B 25250.20251318 .00008224 00000-0 30046-3 0 9992 2 20580 28.4676 208.6484 0002074 256.7198 103.3166 15.26223994745226 0 ISS (ZARYA) 1 25544U 98067A 25250.13183880 .00010763 00000-0 19518-3 0 9990 2 25544 51.6324 260.9183 0004211 310.5120 49.5502 15.50160381527876 0 CXO 1 25867U 99040B 25251.41854089 .00001104 00000-0 00000-0 0 9990 2 25867 51.1350 126.2465 8296128 310.2379 0.8476 0.37803582 16257